User: anonymous   Login
Location: Albany
(35.0000°S, 118.0000°E)
Time: 23:53:51
(UTC-05:00)
Language:

Cosmos 1346 Rocket - Orbit

View from above orbital plane
View from above orbital plane
View from above satellite
View from above satellite

Ground track
Ground track

The orbit data is extracted from the following two-line orbital elements,

1 13121U 82027B   16344.52177291  .00000840  00000-0  52350-4 0  9990
2 13121  81.1634 337.0405 0029287  75.0462 285.4001 15.08110585888397
Epoch (UTC): 09 December 2016 12:31:21
Eccentricity: 0.0029287
inclination: 81.1634°
perigee height: 522 km
apogee height: 562 km
right ascension of ascending node: 337.0405°
argument of perigee: 75.0462°
revolutions per day: 15.08110585
mean anomaly at epoch: 285.4001°
orbit number at epoch: 88839

The dashed part of the orbit path shows where the satellite is in the earth's shadow,  

DLR